Powrót do katalogu

COSMOS 2251 DEB

AktywnyLEO
NORAD 34454·DEBRIS·🇷🇺 Russia

Wystrzelony Jun 16, 1993 z Plesetsk Cosmodrome

Loading…

Następne Przeloty (najbliższe 24 godziny)

TLE

ŚwieżeSource: Space-Track

Epoka: Sep 14, 2026, 15:18 UTC

1 34454U 93036SX  26257.63759282  .00000343  00000-0  11831-3 0  9992
2 34454  74.0577 129.3740 0034547 126.2029 234.2329 14.39132768920362

Śledź COSMOS 2251 DEB w czasie rzeczywistym z AllMySat

Download on the App Store